TimeCST,TemperatureF,Dew PointF,Humidity,Sea Level PressureIn,VisibilityMPH,Wind Direction,Wind SpeedMPH,Gust SpeedMPH,PrecipitationIn,Events,Conditions,WindDirDegrees,DateUTC
12:15 AM,60.8,50.0,68,29.94,10.0,ESE,8.1,-,N/A,,Mostly Cloudy,120,2014-02-17 06:15:00
12:35 AM,60.8,50.0,68,29.93,10.0,ESE,9.2,-,N/A,,Mostly Cloudy,120,2014-02-17 06:35:00
12:55 AM,60.8,50.0,68,29.93,10.0,SE,10.4,-,N/A,,Mostly Cloudy,130,2014-02-17 06:55:00
1:15 AM,60.8,51.8,72,29.93,10.0,SSE,9.2,-,N/A,,Overcast,150,2014-02-17 07:15:00
1:35 AM,60.8,51.8,72,29.93,10.0,SE,9.2,-,N/A,,Overcast,140,2014-02-17 07:35:00
1:55 AM,60.8,51.8,72,29.92,10.0,SE,9.2,-,N/A,,Overcast,140,2014-02-17 07:55:00
2:15 AM,60.8,51.8,72,29.92,10.0,SSE,9.2,-,N/A,,Mostly Cloudy,150,2014-02-17 08:15:00
2:35 AM,60.8,53.6,77,29.91,10.0,SSE,9.2,-,N/A,,Mostly Cloudy,150,2014-02-17 08:35:00
2:55 AM,60.8,53.6,77,29.89,10.0,SE,10.4,-,N/A,,Mostly Cloudy,140,2014-02-17 08:55:00
3:15 AM,60.8,53.6,77,29.89,10.0,SE,11.5,-,N/A,,Mostly Cloudy,140,2014-02-17 09:15:00
3:35 AM,60.8,53.6,77,29.89,10.0,SSE,9.2,-,N/A,,Overcast,150,2014-02-17 09:35:00
3:55 AM,60.8,53.6,77,29.88,10.0,SSE,8.1,-,N/A,,Overcast,160,2014-02-17 09:55:00
4:15 AM,60.8,53.6,77,29.87,10.0,SSE,11.5,-,N/A,,Overcast,150,2014-02-17 10:15:00
4:35 AM,60.8,53.6,77,29.87,10.0,South,9.2,-,N/A,,Overcast,170,2014-02-17 10:35:00
4:55 AM,60.8,53.6,77,29.88,10.0,South,6.9,-,N/A,,Overcast,170,2014-02-17 10:55:00
5:15 AM,60.8,53.6,77,29.89,10.0,South,5.8,-,N/A,,Overcast,170,2014-02-17 11:15:00
5:35 AM,60.8,53.6,77,29.88,10.0,SSE,9.2,-,N/A,,Overcast,160,2014-02-17 11:35:00
5:55 AM,60.8,53.6,77,29.89,10.0,South,8.1,-,N/A,,Overcast,170,2014-02-17 11:55:00
6:15 AM,60.8,55.4,82,29.89,10.0,South,4.6,-,N/A,,Overcast,170,2014-02-17 12:15:00
6:35 AM,60.8,53.6,77,29.89,10.0,South,6.9,-,N/A,,Overcast,190,2014-02-17 12:35:00
6:55 AM,60.8,55.4,82,29.90,10.0,South,5.8,-,N/A,,Overcast,190,2014-02-17 12:55:00
7:15 AM,59.0,53.6,82,29.92,10.0,Calm,Calm,-,N/A,,Overcast,0,2014-02-17 13:15:00
7:35 AM,59.0,53.6,82,29.92,10.0,South,4.6,-,N/A,,Mostly Cloudy,190,2014-02-17 13:35:00
7:55 AM,59.0,55.4,88,29.93,10.0,SW,6.9,-,N/A,,Mostly Cloudy,220,2014-02-17 13:55:00
8:15 AM,60.8,57.2,88,29.94,7.0,WSW,9.2,-,N/A,,Mostly Cloudy,250,2014-02-17 14:15:00
8:35 AM,62.6,57.2,82,29.95,7.0,WSW,10.4,-,N/A,,Scattered Clouds,250,2014-02-17 14:35:00
8:55 AM,64.4,55.4,73,29.96,10.0,West,15.0,20.7,N/A,,Scattered Clouds,270,2014-02-17 14:55:00
9:15 AM,66.2,55.4,68,29.97,10.0,West,15.0,-,N/A,,Scattered Clouds,270,2014-02-17 15:15:00
9:35 AM,66.2,53.6,64,29.98,10.0,WNW,13.8,19.6,N/A,,Scattered Clouds,290,2014-02-17 15:35:00
9:55 AM,66.2,51.8,60,29.99,10.0,NW,11.5,17.3,N/A,,Clear,310,2014-02-17 15:55:00
10:15 AM,66.2,51.8,60,29.99,10.0,NW,10.4,-,N/A,,Clear,320,2014-02-17 16:15:00
10:35 AM,69.8,44.6,40,30.00,10.0,NW,17.3,-,N/A,,Clear,320,2014-02-17 16:35:00
11:15 AM,71.6,39.2,31,30.02,10.0,NNW,19.6,25.3,N/A,,Clear,330,2014-02-17 17:15:00
11:35 AM,71.6,35.6,27,30.02,10.0,NNW,15.0,24.2,N/A,,Clear,330,2014-02-17 17:35:00
11:55 AM,73.4,32.0,22,30.03,10.0,NNW,17.3,25.3,N/A,,Clear,340,2014-02-17 17:55:00
12:15 PM,73.4,26.6,18,30.04,10.0,NW,20.7,28.8,N/A,,Clear,320,2014-02-17 18:15:00
12:35 PM,71.6,28.4,20,30.04,10.0,North,20.7,27.6,N/A,,Clear,350,2014-02-17 18:35:00
12:55 PM,71.6,26.6,19,30.04,10.0,North,18.4,31.1,N/A,,Clear,360,2014-02-17 18:55:00
1:35 PM,71.6,28.4,20,30.04,10.0,NNW,13.8,21.9,N/A,,Clear,330,2014-02-17 19:35:00
1:55 PM,71.6,26.6,19,30.04,10.0,NW,16.1,25.3,N/A,,Clear,320,2014-02-17 19:55:00
2:15 PM,71.6,24.8,17,30.04,10.0,NNW,15.0,27.6,N/A,,Clear,340,2014-02-17 20:15:00
2:35 PM,71.6,26.6,19,30.04,10.0,NNW,11.5,-,N/A,,Clear,330,2014-02-17 20:35:00
2:55 PM,71.6,26.6,19,30.04,10.0,NNW,6.9,10.4,N/A,,Clear,340,2014-02-17 20:55:00
3:15 PM,71.6,23.0,16,30.04,10.0,North,11.5,-,N/A,,Clear,350,2014-02-17 21:15:00
3:35 PM,71.6,23.0,16,30.05,10.0,NNW,11.5,-,N/A,,Clear,330,2014-02-17 21:35:00
3:55 PM,71.6,23.0,16,30.06,10.0,NNE,9.2,-,N/A,,Clear,20,2014-02-17 21:55:00
4:15 PM,69.8,23.0,17,30.06,10.0,North,5.8,-,N/A,,Clear,350,2014-02-17 22:15:00
4:35 PM,69.8,21.2,16,30.06,10.0,North,8.1,-,N/A,,Clear,10,2014-02-17 22:35:00
4:55 PM,68.0,21.2,17,30.07,10.0,North,5.8,-,N/A,,Clear,10,2014-02-17 22:55:00
5:15 PM,66.2,24.8,21,30.07,10.0,North,4.6,-,N/A,,Clear,350,2014-02-17 23:15:00
5:35 PM,64.4,24.8,22,30.09,10.0,NNW,8.1,-,N/A,,Clear,340,2014-02-17 23:35:00
5:55 PM,62.6,24.8,24,30.10,10.0,NNW,5.8,-,N/A,,Clear,330,2014-02-17 23:55:00
6:15 PM,60.8,24.8,25,30.10,10.0,NNW,5.8,-,N/A,,Clear,330,2014-02-18 00:15:00
6:35 PM,59.0,23.0,25,30.11,10.0,NNW,5.8,-,N/A,,Clear,340,2014-02-18 00:35:00
6:55 PM,55.4,23.0,29,30.12,10.0,NNW,6.9,-,N/A,,Clear,330,2014-02-18 00:55:00
7:15 PM,55.4,24.8,31,30.13,10.0,NNW,6.9,-,N/A,,Clear,330,2014-02-18 01:15:00
7:35 PM,55.4,26.6,33,30.13,10.0,NNW,5.8,-,N/A,,Clear,330,2014-02-18 01:35:00
7:55 PM,53.6,26.6,35,30.14,10.0,NNW,8.1,-,N/A,,Clear,340,2014-02-18 01:55:00
9:15 PM,51.8,26.6,38,30.15,10.0,North,6.9,-,N/A,,Clear,10,2014-02-18 03:15:00
9:35 PM,50.0,26.6,40,30.15,10.0,NNE,8.1,-,N/A,,Clear,20,2014-02-18 03:35:00
9:55 PM,50.0,26.6,40,30.15,10.0,NNE,5.8,-,N/A,,Clear,30,2014-02-18 03:55:00
10:15 PM,50.0,24.8,37,30.15,10.0,NNE,4.6,-,N/A,,Clear,20,2014-02-18 04:15:00
10:35 PM,50.0,24.8,37,30.14,10.0,NNE,3.5,-,N/A,,Clear,30,2014-02-18 04:35:00
11:00 PM,46.4,24.8,43,30.14,10.0,NNE,4.6,-,N/A,,Clear,20,2014-02-18 05:00:00
11:20 PM,44.6,26.6,49,30.13,10.0,NNE,4.6,-,N/A,,Clear,20,2014-02-18 05:20:00
11:39 PM,42.8,24.8,49,30.12,10.0,NNE,4.6,-,N/A,,Clear,20,2014-02-18 05:39:00
11:59 PM,46.4,26.6,46,30.11,10.0,NNE,3.5,-,N/A,,Clear,20,2014-02-18 05:59:00